Flag for Spain Weather past 2 weeks in Bilbao, Spain

Now
68 °F

Passing clouds.


Feels Like: 68 °F
Forecast: 49 / 80 °F
Wind: 3 mph from Southeast

Location: Bilbao / Sondica

Current Time: Oct 23, 2014 at 1:24:38 PM

Latest Report: Oct 23, 2014 at 1:00 PM


Visibility: N/A

Pressure: 30.27 "Hg

Humidity: 40%

Dew point: 43 °F

Location of BilbaoLocation

Historic Weather in Bilbao — Graph

°F

Bilbao temperature yesterday

Maximum temperature yesterday: 68 °F (at 2:00 PM)
Minimum temperature yesterday: 54 °F (at 11:00 PM)
Average temperature yesterday: 62 °F

Past Weeks' High & Low Weather Summary

 TemperatureHumidityPressure
High86 °F (Oct 17, 3:30 PM)100% (Oct 9, 5:00 AM)30.48 "Hg (Oct 9, 5:00 AM)
Low46 °F (Oct 23, 8:30 AM)29% (Oct 17, 6:30 PM)29.53 "Hg (Oct 12, 7:00 AM)
Average68 °F70%29.94 "Hg
* Reported Oct 8 12:00 Noon — Oct 23 12:30 PM, Bilbao, Weather by CustomWeather, © 2014

Note: Actual official high and low records may vary slightly from our data, if they occured in-between our weather recording intervals... More about our weather records

Advertising

Bilbao weather history for previous 24 hours

 ConditionsComfort  
Time TempWeatherWind HumidityBarometerVisibility
12:30 PM
Oct 23
66 °FPassing clouds.6 mph46%30.27 "HgN/A
12:00 PM63 °FPassing clouds.6 mph52%30.27 "HgN/A
11:30 AM59 °FPassing clouds.7 mph59%30.27 "HgN/A
11:00 AM57 °FPassing clouds.6 mph63%30.27 "HgN/A
10:30 AM54 °FSunny.7 mph77%30.30 "Hg10 mi
10:00 AM50 °FSunny.7 mph82%30.30 "Hg10 mi
9:30 AM48 °FClear.1 mph87%30.30 "Hg10 mi
9:00 AM48 °FClear.2 mph87%30.27 "Hg10 mi
8:30 AM46 °FClear.3 mph93%30.30 "Hg10 mi
8:00 AM48 °FClear.1 mph87%30.30 "Hg10 mi
7:30 AM48 °FPassing clouds.3 mph87%30.30 "HgN/A
7:00 AM48 °FClear.1 mph94%30.30 "Hg10 mi
6:30 AM48 °FClear.2 mph94%30.30 "Hg10 mi
6:00 AM48 °FClear.5 mph94%30.30 "Hg10 mi
5:30 AM48 °FClear.2 mph94%30.33 "Hg10 mi
5:00 AM48 °FClear.3 mph94%30.33 "Hg10 mi
11:30 PM
Oct 22
54 °FClear.2 mph88%30.39 "Hg10 mi
11:00 PM54 °FClear.2 mph88%30.39 "Hg10 mi
10:30 PM55 °FClear.6 mph82%30.39 "Hg10 mi
10:00 PM55 °FClear.2 mph82%30.39 "Hg10 mi
9:30 PM55 °FClear.2 mph82%30.39 "Hg10 mi
9:00 PM57 °FClear.1 mph77%30.39 "Hg10 mi
8:30 PM59 °FClear.3 mph72%30.39 "Hg10 mi
8:00 PM63 °FSunny.2 mph64%30.39 "Hg10 mi
7:30 PM63 °FSunny.2 mph68%30.39 "Hg10 mi
7:00 PM64 °FSunny.2 mph60%30.39 "Hg10 mi
6:30 PM66 °FPassing clouds.5 mph52%30.39 "HgN/A
6:00 PM66 °FPassing clouds.3 mph52%30.39 "HgN/A
5:30 PM68 °FPassing clouds.7 mph53%30.42 "HgN/A
5:00 PM68 °FPassing clouds.6 mph49%30.42 "HgN/A
4:30 PM68 °FPassing clouds.5 mph53%30.42 "HgN/A
4:00 PM68 °FPassing clouds.3 mph53%30.42 "HgN/A
3:30 PM68 °FScattered clouds.5 mph53%30.42 "HgN/A
3:00 PM66 °FScattered clouds.7 mph56%30.45 "HgN/A
2:30 PM66 °FScattered clouds.7 mph56%30.45 "HgN/A
2:00 PM68 °FScattered clouds.3 mph49%30.45 "HgN/A
1:30 PM66 °FScattered clouds.7 mph52%30.48 "HgN/A
1:00 PM66 °FScattered clouds.5 mph52%30.48 "HgN/A
Weather by CustomWeather, © 2014

See weather overviewHow to use our weather pages